Flag for U.S.A. Weather past 2 weeks in Winamac, Indiana, U.S.A.

Now
64 °F

Sunny.


Feels Like: 64 °F
Forecast: 52 / 75 °F
Wind: 13 mph from North

Location: Porter County Municipal Airport

Current Time: Jul 28, 2014 at 8:46:06 PM

Latest Report: Jul 28, 2014 at 7:53 PM


Visibility: 10 mi

Pressure: 30.07 "Hg

Humidity: 56%

Dew point: 48 °F

Location of WinamacLocation

Historic Weather in Winamac — Graph

°F

Winamac temperature yesterday

Maximum temperature yesterday: 86 °F (at 2:53 PM)
Minimum temperature yesterday: 65 °F (at 11:53 PM)
Average temperature yesterday: 74 °F

Past Weeks' High & Low Weather Summary

 TemperatureHumidityPressure
High86 °F (Jul 27, 2:53 PM)100% (Jul 27, 3:01 AM)30.21 "Hg (Jul 27, 3:01 AM)
Low48 °F (Jul 25, 4:53 AM)40% (Jul 27, 3:53 PM)29.67 "Hg (Jul 27, 3:53 PM)
Average67 °F74%30.00 "Hg
* Reported Jul 13 6:53 PM — Jul 28 6:53 PM, Winamac, Weather by CustomWeather, © 2014

Note: Actual official high and low records may vary slightly from our data, if they occured in-between our weather recording intervals... More about our weather records

Advertising

Winamac weather history for previous 24 hours

 ConditionsComfort  
Time TempWeatherWind HumidityBarometerVisibility
6:53 PM
Jul 28
63 °FSunny.12 mph58%30.07 "Hg10 mi
5:53 PM64 °FSunny.13 mph52%30.07 "Hg10 mi
4:53 PM64 °FSunny.16 mph54%30.08 "Hg10 mi
4:02 PM63 °FScattered clouds.15 mph63%30.08 "Hg10 mi
2:53 PM62 °FOvercast.9 mph65%30.07 "Hg10 mi
1:53 PM62 °FPartly sunny.15 mph67%30.07 "Hg10 mi
12:53 PM59 °FOvercast.13 mph75%30.07 "Hg10 mi
11:53 AM59 °FOvercast.8 mph78%30.06 "Hg10 mi
10:53 AM60 °FOvercast.12 mph78%30.03 "Hg10 mi
9:53 AM60 °FOvercast.9 mph78%30.02 "Hg10 mi
8:53 AM60 °FOvercast.10 mph78%30.00 "Hg10 mi
7:53 AM60 °FOvercast.10 mph80%29.98 "Hg10 mi
6:53 AM60 °FOvercast.10 mph80%29.95 "Hg10 mi
5:53 AM61 °FOvercast.9 mph78%29.92 "Hg10 mi
4:53 AM61 °FPassing clouds.14 mph78%29.89 "Hg10 mi
3:53 AM62 °FPassing clouds.15 mph75%29.88 "Hg10 mi
2:53 AM63 °FOvercast.14 mph75%29.87 "Hg10 mi
1:53 AM63 °FOvercast.14 mph75%29.87 "Hg10 mi
12:53 AM63 °FOvercast.14 mph84%29.86 "Hg10 mi
12:03 AM64 °FMostly cloudy.8 mph87%29.87 "Hg10 mi
11:53 PM
Jul 27
65 °FMostly cloudy.12 mph85%29.85 "Hg10 mi
10:53 PM66 °FMostly cloudy.6 mph78%29.84 "Hg10 mi
9:53 PM67 °FPassing clouds.10 mph73%29.82 "Hg10 mi
8:53 PM72 °FBroken clouds.10 mph59%29.78 "Hg10 mi
Weather by CustomWeather, © 2014

See weather overviewHow to use our weather pages